Theta_e
315 314 314 313 313 311 310 308 307 307 308 308 308 308 309 312 313 316 316 313 312 318 321 320 321 328 338 335 335 340 351 351 349 350 350 347 346 344 345 345 345 346 342 339 338
314 314 314 314 314 314 315 314 312 311 309 307 308 309 309 310 313 315 317 315 312 318 318 319 323 322 326 327 329 344 350 350 346 346 348 346 348 346 345 346 346 344 343 339 337
314 314 314 314 314 314 315 315 315 315 314 312 308 307 308 310 314 320 320 315 312 317 316 320 322 323 328 328 331 342 350 347 346 346 344 346 347 344 346 347 345 344 344 343 343
312 313 314 314 314 314 315 315 316 316 315 314 312 308 308 311 320 321 319 319 312 314 316 320 326 328 327 329 331 349 349 345 347 346 347 348 347 344 344 346 342 343 343 344 344
311 312 312 313 314 314 315 315 316 317 316 314 312 309 308 313 319 322 321 319 313 314 316 317 325 328 328 327 345 347 349 347 349 345 346 347 347 346 344 344 344 344 345 345 343
311 311 311 312 312 313 314 315 316 317 318 313 313 311 309 316 322 323 322 319 314 313 316 315 325 326 327 343 339 350 347 347 347 346 346 346 347 344 343 345 346 345 346 345 343
311 311 310 311 312 312 313 315 316 318 320 318 317 320 312 319 323 323 324 322 318 316 314 315 325 322 324 344 346 347 349 347 345 346 348 348 351 348 345 345 346 346 346 345 344
311 311 310 311 311 312 313 314 318 320 322 321 320 320 320 321 322 321 321 321 321 316 317 314 319 320 324 345 347 348 346 349 346 347 346 346 354 347 347 346 346 346 346 345 345
310 310 310 311 311 312 313 317 320 321 323 322 322 321 322 322 320 321 321 321 319 312 313 316 319 318 333 341 339 339 349 350 349 346 346 346 347 346 346 346 346 346 345 345 345
309 310 310 311 311 312 316 320 321 323 322 322 323 321 322 323 322 319 320 320 320 313 314 315 316 316 315 328 327 340 346 349 350 348 346 347 345 346 345 346 346 345 346 345 345
309 310 310 312 312 315 320 321 321 322 321 323 322 322 323 323 322 321 319 321 319 317 316 318 318 318 319 320 328 337 344 349 349 345 347 347 348 347 345 346 345 345 344 344 344
309 309 311 312 314 318 322 322 321 320 319 322 323 323 322 322 322 321 322 322 320 318 318 316 320 319 320 320 323 324 341 348 345 343 344 347 348 346 345 345 343 344 344 344 344
308 310 313 313 317 322 321 321 320 321 319 322 324 325 322 321 321 321 322 321 318 318 318 318 321 320 322 324 332 331 340 347 345 343 340 345 344 348 346 344 343 338 344 344 344
309 312 313 314 320 322 322 321 321 322 316 320 323 323 322 321 320 321 321 319 317 319 317 317 317 319 320 322 331 335 341 341 343 341 343 344 349 344 347 345 342 341 342 343 344
309 313 314 315 319 320 321 321 322 321 320 322 322 322 321 321 320 320 321 321 317 317 316 317 318 318 318 319 323 330 340 340 342 346 346 346 348 342 346 348 345 341 340 342 343
311 313 316 316 318 320 321 320 322 315 320 320 321 320 320 320 320 320 320 319 319 317 316 316 319 316 320 333 328 341 342 340 339 344 347 344 345 343 347 347 345 341 341 341 343
312 313 316 317 318 320 319 322 315 314 316 317 316 316 319 319 320 320 319 318 317 318 317 317 319 335 337 339 337 332 331 337 338 344 348 342 348 346 340 342 344 342 341 341 342
314 314 316 318 318 318 320 315 316 320 317 314 316 320 320 320 319 320 318 319 317 316 315 317 317 337 331 337 339 332 326 332 341 345 344 345 347 342 338 339 341 342 342 341 340
315 316 320 321 321 322 323 318 316 317 316 316 318 319 321 323 322 321 320 321 320 317 322 319 321 319 321 333 334 335 336 332 341 342 345 345 342 339 337 337 339 340 340 340 341
316 318 320 322 323 323 317 319 321 320 316 317 318 319 322 323 324 323 324 322 322 321 319 320 323 321 321 329 332 331 329 337 335 347 347 345 343 344 341 342 339 339 339 340 341
317 320 322 322 324 324 317 317 320 321 317 319 318 319 319 324 324 324 325 324 322 321 320 319 319 322 320 320 323 320 324 323 330 334 342 346 343 339 337 344 345 344 342 339 340
316 316 322 323 323 312 316 318 321 320 317 317 318 319 319 324 324 323 323 323 325 322 323 319 316 321 323 320 318 320 322 318 324 325 334 339 330 339 341 342 344 341 340 341 340
314 318 322 321 317 314 313 316 319 316 315 316 317 317 321 323 324 325 326 324 324 326 324 321 317 320 321 322 323 330 334 330 314 317 327 326 324 339 338 339 339 339 339 339 341
314 315 321 320 319 316 318 318 317 317 316 316 317 317 322 324 322 324 321 323 324 325 324 320 314 318 320 322 324 335 335 336 318 318 318 320 340 343 340 340 340 340 340 340 342
315 315 320 320 320 320 317 315 318 316 316 317 315 319 320 324 324 321 320 320 322 322 321 318 322 321 320 319 332 334 335 340 342 340 324 329 340 342 338 336 336 338 342 341 342
319 325 325 323 323 320 316 322 317 316 315 316 314 316 320 320 320 319 319 319 320 321 320 318 324 324 329 330 331 333 332 337 339 338 341 340 341 338 333 334 338 339 340 343 342
313 319 323 322 321 322 323 325 324 316 317 316 314 318 318 319 321 319 319 318 318 321 318 319 319 322 325 326 329 328 331 332 338 336 336 339 335 334 336 337 337 337 339 341 345
Wind_Speed
13 15 15 15 15 14 12 11 9 7 6 5 6 6 7 8 10 11 11 5 9 9 12 10 8 9 6 1 1 1 3 3 6 7 6 8 3 8 7 17 6 1 22 31 31
11 12 13 13 13 14 14 14 13 11 9 7 7 6 7 7 8 11 6 6 12 11 10 11 11 10 4 2 2 2 2 6 3 7 6 8 4 10 9 10 12 27 24 31 30
10 11 11 11 12 13 14 14 13 12 12 10 8 7 6 5 1 2 1 9 13 13 9 10 12 8 3 2 3 4 2 5 11 11 17 7 8 4 19 3 16 31 32 33 30
10 9 10 10 11 12 13 14 15 13 12 11 9 7 5 1 4 3 2 7 15 15 12 10 9 7 3 2 2 2 1 7 9 18 8 4 5 8 7 6 30 32 35 34 30
9 10 10 10 11 11 11 13 15 15 13 11 9 7 4 1 2 3 3 6 14 15 10 8 9 4 3 2 1 3 3 2 3 10 15 7 7 4 5 16 32 32 33 33 29
9 10 10 10 10 10 11 13 14 15 12 11 8 7 3 1 3 6 10 7 9 13 9 8 6 1 2 3 2 5 11 6 12 14 15 6 8 5 12 22 29 32 34 31 28
9 10 11 11 10 10 11 12 14 13 10 9 8 10 1 2 6 5 5 6 2 8 6 9 10 4 5 2 5 9 5 4 12 4 6 15 12 12 15 28 29 30 31 29 28
9 10 12 11 10 10 11 13 15 12 9 11 9 8 1 7 6 3 1 1 3 7 8 7 8 5 2 7 4 3 3 3 4 4 4 5 5 10 18 29 28 26 25 28 27
9 11 12 11 9 8 11 15 13 9 7 11 7 6 2 2 7 8 4 2 4 8 13 11 7 1 3 3 4 5 2 3 2 6 3 3 4 5 13 25 25 26 28 27 26
9 11 12 11 7 8 13 14 11 5 8 5 7 4 4 6 4 3 7 4 4 10 7 4 3 3 3 4 2 2 4 4 4 6 4 1 5 8 15 15 22 26 27 28 28
9 11 11 9 6 6 12 10 11 4 14 6 9 5 3 5 5 3 9 7 5 4 3 2 4 5 5 5 4 4 4 6 4 6 7 4 3 7 19 10 18 24 27 31 32
9 10 10 8 5 6 10 9 11 10 9 6 3 6 4 2 2 6 7 4 4 3 3 6 2 5 3 4 2 3 6 3 2 3 3 4 3 4 15 9 9 27 27 35 32
9 9 9 6 3 4 5 12 17 13 2 6 5 5 1 3 3 4 8 4 4 3 3 5 2 7 3 3 5 3 5 4 4 3 2 4 2 5 6 8 11 24 34 36 38
9 9 7 4 2 4 4 14 19 8 5 6 2 1 2 1 1 4 4 2 4 3 3 2 2 3 3 3 5 4 5 9 10 2 1 5 4 4 9 10 9 15 26 31 37
10 8 6 3 4 4 7 14 15 3 4 4 2 0 3 2 1 2 5 1 2 2 5 6 3 4 3 7 8 4 9 8 3 4 2 3 3 5 9 9 12 15 24 33 37
10 8 6 4 6 5 9 13 4 5 3 6 1 1 2 2 3 4 2 2 2 2 1 7 3 4 5 1 6 12 8 7 5 3 2 1 7 4 6 16 20 13 24 33 35
10 7 5 4 4 7 11 7 5 5 3 7 3 4 1 4 3 2 2 2 1 4 5 6 2 1 8 8 7 6 6 3 3 2 0 4 3 9 9 7 22 20 30 32 37
8 5 5 6 6 8 7 4 5 1 5 4 4 3 4 1 4 2 3 2 1 3 2 2 4 7 6 7 8 6 6 5 6 5 3 2 5 5 4 7 26 29 32 32 34
4 4 3 3 2 3 1 4 6 4 4 5 2 6 7 5 4 4 4 1 1 3 3 2 4 4 5 4 10 5 4 4 6 3 3 1 5 6 7 13 13 25 31 37 34
4 3 2 5 3 1 4 3 3 4 4 3 3 2 3 6 4 3 4 4 4 3 2 3 2 3 5 4 1 7 5 1 2 4 2 3 3 5 10 13 8 16 28 38 43
4 1 2 7 5 1 3 5 5 7 4 2 2 2 1 1 3 2 1 2 4 5 4 2 2 6 2 4 2 1 1 2 3 3 5 3 5 4 4 10 9 14 25 31 35
2 2 2 10 2 2 2 5 2 5 1 1 3 3 2 2 3 2 1 3 7 3 2 1 4 2 4 3 4 1 1 4 4 3 2 3 4 7 7 2 2 3 13 26 35
7 1 7 4 2 2 4 4 7 4 3 1 2 1 2 4 3 1 2 3 4 2 2 2 1 3 6 6 3 5 3 1 2 3 5 4 4 4 7 7 7 3 6 16 25
3 1 2 4 3 4 1 4 2 4 3 4 3 3 3 2 3 3 2 2 5 4 5 3 2 5 5 5 2 1 4 2 2 3 3 3 2 2 5 5 9 5 2 11 23
2 1 1 1 1 1 1 2 2 3 3 4 2 3 6 3 1 2 1 4 3 6 3 4 1 2 5 4 1 1 1 4 2 1 4 2 3 3 3 4 6 6 5 5 16
3 3 3 2 3 1 1 1 3 3 6 3 6 5 4 6 7 8 4 3 5 2 2 2 1 2 2 2 5 1 1 6 4 3 4 3 2 1 4 1 6 9 7 2 11
3 3 2 3 2 2 3 2 5 5 2 5 11 5 5 6 8 3 5 3 1 2 1 1 3 2 4 3 5 5 2 1 4 1 3 3 3 4 3 4 6 7 9 7 3
Wind_Direction
37 40 43 44 43 39 33 27 18 1 348 323 303 296 290 278 271 266 261 237 195 189 171 167 163 163 170 141 186 12 80 145 159 136 170 230 132 146 134 132 89 219 153 154 155
36 36 37 35 33 30 27 24 24 20 6 345 323 310 306 304 277 265 250 205 182 168 176 182 164 158 149 107 163 139 146 185 120 148 177 172 198 151 133 125 104 114 146 152 156
30 27 26 25 23 19 17 15 11 6 9 359 343 331 326 324 319 110 218 199 185 188 183 175 152 164 153 183 180 176 218 148 165 150 164 220 242 162 132 110 161 145 158 158 164
24 18 13 12 10 11 12 13 12 6 357 355 348 345 338 5 125 93 82 190 192 183 184 167 159 146 111 207 192 184 166 173 159 172 137 137 332 144 159 177 165 155 160 161 167
18 13 6 2 357 359 2 5 6 3 358 355 353 354 352 313 59 47 77 147 190 188 178 169 163 137 145 253 291 160 95 68 17 166 145 156 257 31 195 154 166 161 165 166 169
10 8 3 359 349 348 352 356 356 354 356 5 8 358 0 48 98 81 68 121 179 198 196 167 169 251 341 26 65 109 94 53 68 144 140 165 214 126 225 162 165 169 172 173 174
-0 359 360 358 347 340 345 347 345 347 349 358 0 358 53 55 145 125 91 78 127 191 184 173 142 47 347 79 99 128 93 64 39 36 100 167 140 200 190 173 166 173 177 182 183
351 354 357 355 345 340 339 340 338 339 346 355 360 6 44 159 190 176 127 339 3 184 172 161 193 326 34 119 51 38 77 88 9 3 48 170 137 195 172 164 166 174 175 188 193
349 351 352 350 344 341 333 341 338 332 346 347 14 7 84 294 252 246 241 20 65 127 130 135 136 71 113 91 35 13 87 60 100 1 115 68 135 183 191 177 170 175 184 194 199
351 351 350 349 344 342 349 347 359 354 343 13 12 13 18 360 1 278 192 151 79 133 129 137 125 80 44 70 188 166 107 75 53 16 61 48 174 190 181 192 181 183 189 191 198
351 349 348 346 346 1 15 6 6 345 331 304 303 281 315 360 7 78 144 156 130 139 118 74 89 198 180 190 141 124 92 87 78 32 20 360 155 193 202 227 203 188 187 198 203
350 346 345 340 360 16 30 42 17 323 311 -0 341 277 267 283 16 127 152 131 153 109 108 33 232 217 164 169 153 124 123 100 105 124 116 272 235 174 202 241 269 196 191 203 205
346 345 339 333 351 25 20 11 352 333 260 309 326 303 38 130 102 133 168 143 123 115 95 135 225 125 158 154 152 197 139 165 146 217 156 298 273 162 203 216 253 203 199 205 206
342 344 334 318 324 337 344 349 343 329 59 303 339 32 173 250 53 170 163 128 43 145 140 218 287 194 162 189 145 215 196 122 134 129 84 78 300 213 183 205 223 200 199 205 208
335 337 332 272 289 314 326 336 334 308 56 292 304 313 152 125 127 121 175 223 129 120 82 259 234 185 187 209 162 171 115 108 117 83 56 85 307 268 166 209 223 214 203 207 207
327 322 318 289 263 281 309 326 325 39 13 340 281 356 65 359 52 104 107 40 9 133 328 242 264 172 192 0 147 120 91 52 65 51 71 242 200 270 184 214 205 213 207 205 204
319 307 288 275 260 276 307 330 35 93 332 313 303 21 61 25 32 70 111 46 105 24 359 323 259 67 111 78 4 87 85 46 24 43 230 286 225 266 272 198 199 204 210 202 210
312 290 278 280 262 283 313 58 72 263 263 303 355 35 90 84 9 54 70 39 119 117 114 75 324 167 169 172 177 180 136 156 165 188 208 78 228 250 239 203 202 205 207 200 207
310 287 299 220 239 277 295 63 196 205 276 327 22 53 2 9 102 71 11 184 257 200 139 89 290 282 225 150 142 213 216 201 112 320 112 243 296 301 247 265 209 194 192 199 201
310 298 241 214 226 318 74 212 224 214 303 59 90 45 44 341 55 51 14 314 337 45 104 214 325 260 289 115 352 151 164 144 18 134 200 243 270 274 225 225 232 192 200 204 200
321 286 141 176 179 352 138 225 256 280 246 115 151 91 75 79 68 57 330 294 344 340 86 117 98 291 347 13 210 73 170 20 125 128 163 180 249 312 258 217 202 207 223 214 201
331 71 105 167 73 37 158 198 266 308 39 71 86 113 120 108 73 93 183 231 340 326 37 40 137 272 227 275 265 94 85 154 142 221 239 178 278 347 343 37 166 230 220 215 201
342 148 173 216 141 270 281 261 226 214 204 125 121 66 42 127 105 106 308 303 14 74 42 177 12 6 354 355 7 59 351 41 98 68 198 153 277 2 353 40 76 101 178 188 191
334 36 160 192 180 149 237 273 240 187 114 101 105 114 104 76 22 142 333 300 344 43 37 117 129 155 198 230 193 81 352 12 140 134 172 232 154 312 343 7 30 36 140 184 185
335 353 101 246 256 145 219 299 239 155 118 136 81 175 155 137 87 159 253 329 349 356 52 88 225 241 264 249 142 129 291 5 85 161 188 33 126 234 287 321 355 15 22 183 180
13 6 347 263 295 18 89 257 212 220 147 185 150 191 153 153 182 204 174 197 233 340 61 16 230 328 280 351 213 186 194 122 48 331 263 136 126 23 315 320 7 15 16 116 183
352 326 305 296 337 109 221 218 262 164 197 193 156 128 138 192 189 204 198 123 228 204 155 95 120 73 269 11 334 297 310 10 141 204 268 221 195 160 115 67 19 2 36 49 180